Temperature
20 20 19 19 18 19 20 21 22 22 22 22 22 21 20 19 19 18 18 19 19 19 19 19 19 19 19 19 20 20 20 20 20 20 20 20 20 20 20 19 19 19 19 19 19 19 19 19 19
20 20 19 19 19 19 21 21 22 23 23 22 21 20 20 19 19 18 18 18 18 19 19 19 19 19 19 19 19 20 20 20 20 20 20 20 20 20 19 19 19 19 19 19 19 19 19 19 19
20 20 20 18 19 20 21 21 22 23 23 22 20 19 19 19 18 18 18 18 18 18 18 19 19 19 19 19 19 19 19 19 19 20 20 19 19 19 19 19 19 19 19 19 19 19 19 19 19
21 20 20 19 20 20 21 21 22 23 23 22 20 18 18 18 18 18 18 18 18 18 18 18 18 19 19 19 19 19 19 19 19 19 19 19 19 19 19 19 19 19 19 19 19 19 19 19 19
21 21 19 20 20 21 21 22 23 23 22 21 20 18 18 18 18 18 18 18 18 18 18 18 18 18 18 18 18 18 18 18 18 19 19 19 19 19 19 19 19 19 19 19 19 19 19 19 19
22 19 19 20 20 20 21 22 23 22 21 20 19 18 18 18 18 18 18 18 18 18 18 18 18 18 18 18 18 18 18 18 18 18 18 18 18 18 19 19 19 19 19 19 19 19 19 19 19
21 19 20 20 20 21 22 23 22 21 21 21 20 18 18 18 19 19 18 18 18 18 18 18 17 17 17 17 17 17 17 17 17 17 17 18 18 18 18 18 18 18 19 19 19 19 19 19 19
22 19 20 20 20 21 22 23 23 22 21 21 20 18 18 19 19 18 18 18 18 18 17 17 17 17 17 17 17 17 17 17 17 17 17 17 17 17 18 18 18 18 18 18 18 18 19 19 19
22 19 20 20 20 21 22 23 22 22 21 21 20 20 19 19 19 18 18 18 18 17 17 17 17 17 16 16 16 16 16 16 16 16 16 17 17 17 17 17 17 18 18 18 18 18 18 18 18
21 19 20 21 21 21 22 23 22 21 20 20 20 20 19 19 19 18 18 18 18 17 17 17 17 16 16 16 16 16 16 16 16 16 16 16 16 16 17 17 17 17 17 18 18 18 18 18 18
20 19 20 21 22 22 22 23 22 20 19 20 20 19 19 19 19 19 18 18 18 17 17 16 16 16 16 16 15 15 15 15 15 15 15 16 16 16 16 16 16 17 17 17 17 17 17 18 18
19 20 20 21 23 23 23 23 22 21 21 21 20 20 19 19 19 19 18 18 18 17 17 16 16 16 15 15 15 15 15 15 15 15 15 15 15 15 15 16 16 16 16 17 17 17 17 17 18
19 19 20 22 23 23 23 22 21 21 21 21 20 20 20 19 19 19 18 18 17 17 16 16 16 15 15 15 15 14 14 15 15 15 15 15 15 15 15 15 15 16 16 16 16 17 17 17 17
19 19 20 21 22 23 22 21 21 20 21 21 20 20 20 20 19 19 18 18 17 17 16 16 15 15 15 14 14 14 14 14 14 14 15 15 15 15 15 15 15 15 15 16 16 16 16 17 17
19 19 20 20 21 22 22 20 20 21 21 21 20 20 20 20 19 19 18 18 17 17 16 15 15 15 14 14 14 14 14 14 14 14 14 14 14 14 14 15 15 15 15 15 16 16 16 16 17
19 19 19 20 20 21 21 20 20 21 21 21 20 20 20 20 19 19 18 18 17 17 16 15 15 15 14 14 14 13 13 13 14 14 14 14 14 14 14 14 14 15 15 15 15 15 16 16 16
19 19 19 20 20 20 20 20 20 21 21 21 20 20 20 19 19 18 18 17 17 16 16 15 15 14 14 14 13 13 13 13 13 13 13 14 14 14 14 14 14 14 14 15 15 15 15 16 16
19 19 20 20 20 20 20 20 19 21 21 21 21 20 20 19 19 18 18 17 17 16 16 15 15 14 14 14 13 13 13 13 13 13 13 13 13 13 14 14 14 14 14 14 15 15 15 15 16
20 20 20 21 21 21 20 20 19 20 20 20 20 20 20 19 19 18 18 17 17 16 15 15 14 14 14 13 13 13 13 13 13 13 13 13 13 13 13 13 13 14 14 14 14 14 15 15 15
21 21 20 21 22 21 20 20 20 19 20 21 20 20 20 19 18 18 17 17 17 16 15 15 14 14 13 13 13 13 13 12 13 13 13 13 13 13 13 13 13 13 13 14 14 14 14 15 15
21 20 21 21 22 22 21 20 20 19 20 21 21 21 20 19 18 18 17 17 17 16 15 15 14 14 13 13 13 13 13 13 13 13 12 12 12 12 12 13 13 13 13 13 13 14 14 14 15
21 22 22 22 20 19 21 18 19 19 19 19 20 20 20 19 19 18 18 17 17 16 15 15 14 14 13 13 13 13 12 12 12 12 12 12 12 12 12 12 12 12 13 13 13 13 14 14 14
21 23 23 22 20 19 19 19 18 19 19 18 19 20 20 20 19 18 18 17 17 16 16 15 14 14 13 13 13 12 12 12 12 12 12 12 12 12 12 12 12 12 12 12 13 13 13 13 14
22 21 20 17 17 18 19 18 18 17 18 19 18 20 20 20 19 19 18 17 17 16 16 15 14 14 13 13 13 13 12 12 12 12 12 12 12 12 12 12 12 12 12 12 12 12 13 13 13
20 18 18 18 17 17 19 19 18 19 19 19 19 20 20 20 19 18 18 17 17 16 16 15 15 14 14 13 13 13 12 12 12 12 12 12 12 12 12 12 12 12 12 12 12 12 12 13 13
21 18 18 19 18 18 20 19 18 20 20 21 21 21 20 19 19 19 18 18 17 16 16 15 15 14 14 14 13 13 13 12 12 12 12 12 11 11 11 11 11 12 12 12 12 12 12 12 13
21 19 18 17 18 18 18 19 20 20 19 19 19 20 20 20 19 19 18 18 17 17 16 16 15 15 14 14 13 13 13 12 12 12 12 12 11 11 11 11 11 11 11 12 12 12 12 12 12
21 19 16 18 18 18 19 19 17 18 18 18 18 19 20 20 19 19 18 18 17 17 16 16 15 15 15 14 14 13 13 12 12 12 12 12 11 11 11 11 11 11 11 11 11 11 12 12 12
22 21 17 15 16 17 18 18 18 18 18 18 18 20 20 20 20 19 19 18 18 17 16 16 16 15 15 14 14 13 13 13 12 12 12 12 11 11 11 11 11 11 11 11 11 11 11 12 12
21 21 18 18 18 16 16 17 19 18 19 20 20 21 21 21 20 19 19 18 18 17 17 16 16 15 15 15 14 14 13 13 13 12 12 12 12 11 11 11 11 11 11 11 11 11 11 11 12
Wind_Speed
14 11 4 2 1 1 1 2 2 2 4 6 11 11 9 7 6 6 1 3 8 8 9 11 11 10 9 8 7 7 6 6 5 5 5 5 4 4 4 3 3 3 3 3 3 3 3 3 3
11 7 3 2 2 1 1 2 1 3 7 8 9 9 8 7 5 4 2 5 9 9 9 9 10 9 8 7 6 6 6 5 5 5 5 4 4 3 3 2 2 2 2 2 2 2 1 2 2
9 5 2 2 2 3 2 2 1 6 8 6 6 6 5 4 3 2 3 8 8 8 8 9 9 8 7 6 5 5 5 4 4 5 5 5 5 4 4 4 3 3 2 2 1 1 0 0 1
5 2 1 2 2 2 3 3 3 6 7 7 7 6 4 4 2 3 6 9 9 6 7 8 8 7 6 5 4 4 4 4 4 5 5 6 6 6 6 5 5 4 4 3 3 3 2 2 2
2 3 3 1 0 1 1 1 3 6 4 5 7 6 3 2 5 6 7 8 8 5 6 6 7 6 5 4 3 3 3 4 4 5 6 6 7 7 7 7 6 6 6 6 5 5 4 4 4
3 3 3 2 1 2 2 1 7 10 7 7 7 6 2 2 4 5 6 6 6 5 4 4 5 4 3 3 2 3 3 4 5 6 6 7 7 8 8 8 8 8 8 8 7 7 6 6 6
4 4 2 4 3 2 2 2 6 7 6 4 5 6 3 2 4 5 6 5 5 4 4 3 2 1 0 1 2 3 4 5 5 6 7 7 8 9 9 9 9 9 9 9 9 8 8 8 8
4 4 3 2 3 3 3 3 5 7 5 4 4 7 5 5 5 5 5 4 4 3 2 2 2 2 2 2 3 4 5 6 6 7 8 8 8 9 9 10 10 10 10 10 10 10 10 9 9
4 4 2 4 5 4 4 4 3 5 7 5 4 5 6 8 7 6 4 3 3 3 1 2 2 2 2 2 3 4 6 7 7 7 8 8 7 7 8 9 11 11 12 11 10 10 11 10 10
4 3 3 4 4 5 4 6 7 5 7 5 6 5 7 8 7 6 5 4 3 2 2 2 2 2 3 4 4 5 5 7 7 7 7 7 6 7 7 8 11 12 12 12 11 11 11 10 8
3 2 1 2 3 4 4 5 6 9 5 7 9 9 7 7 7 7 5 5 4 3 3 3 3 3 3 3 4 4 5 6 6 7 7 6 5 6 6 5 7 8 9 8 8 8 7 6 6
3 1 1 2 2 3 4 5 5 5 8 10 11 10 8 9 8 8 7 6 5 4 4 3 4 4 4 4 4 3 4 4 4 6 6 4 2 3 3 3 5 5 5 4 5 4 5 5 6
3 1 3 5 2 2 4 5 7 5 9 11 11 10 10 9 8 7 7 7 6 5 4 3 4 4 3 3 3 4 3 4 5 5 5 4 2 3 2 3 3 4 4 3 3 3 4 4 4
4 4 3 5 2 1 5 4 7 7 10 11 11 10 10 9 8 7 7 6 6 5 4 2 3 3 3 3 3 3 4 4 4 4 4 4 2 2 2 3 3 3 4 4 4 4 4 4 4
3 3 2 3 0 0 4 1 6 10 12 11 10 10 10 9 9 9 8 7 6 5 4 3 3 3 4 4 4 4 5 5 4 4 6 5 4 3 2 2 3 3 4 4 3 3 3 4 4
3 1 1 3 2 2 4 6 7 11 12 11 9 9 9 8 8 8 8 7 6 6 4 2 3 4 4 3 3 3 4 4 4 5 6 6 6 5 2 2 3 3 3 2 3 3 3 4 4
2 2 3 4 5 3 4 7 6 10 11 10 9 9 8 7 7 7 8 8 7 6 5 3 3 3 3 4 3 4 4 4 4 5 5 6 7 7 3 2 3 3 2 2 3 2 3 3 4
5 4 4 5 5 6 6 8 7 10 10 10 9 8 8 8 8 8 7 7 7 6 5 4 3 3 3 3 3 4 5 4 4 4 4 6 6 7 5 2 4 3 2 2 2 2 2 3 3
7 5 4 5 6 8 10 10 9 11 9 9 8 7 8 8 7 7 7 7 6 5 5 4 3 2 2 2 2 3 3 3 4 3 5 6 6 6 4 4 4 4 2 3 3 2 2 2 1
6 4 2 3 6 8 8 9 8 11 12 10 10 10 10 8 8 7 7 6 6 6 5 4 4 2 1 0 0 1 2 2 2 3 4 6 6 6 4 4 4 4 3 4 3 1 1 2 1
3 5 6 6 2 3 3 5 3 5 7 7 8 9 10 13 12 9 8 7 6 6 6 5 4 3 1 1 1 2 3 3 4 4 4 5 6 5 4 4 4 4 3 3 3 2 1 2 2
4 7 7 5 4 3 3 3 5 5 7 8 7 8 10 11 10 9 9 8 7 7 6 5 5 3 2 1 2 1 1 2 3 3 4 5 6 5 5 4 4 4 3 3 3 2 1 1 2
8 6 4 3 3 2 1 3 6 3 7 9 8 9 10 11 11 11 10 9 8 7 6 6 5 3 2 1 1 1 0 2 2 3 4 5 5 5 5 4 4 4 3 3 4 3 2 1 2
5 5 7 6 5 2 5 6 5 6 9 9 8 9 10 10 10 10 9 8 7 6 6 5 5 3 3 1 1 1 1 1 2 3 4 4 4 4 5 4 4 4 3 4 3 3 3 2 2
6 6 4 4 4 6 4 5 8 7 7 9 10 10 10 10 10 9 9 8 8 7 7 6 5 4 4 2 1 2 2 2 1 2 2 3 3 3 5 4 4 4 4 4 3 3 3 2 2
5 9 7 4 4 5 2 4 5 3 4 6 8 9 9 10 9 10 10 10 9 9 8 7 6 5 5 4 3 2 3 2 2 2 2 2 3 4 4 5 5 5 4 4 2 2 3 3 3
6 4 7 6 2 3 4 3 4 1 3 5 7 8 10 10 10 10 10 9 9 9 8 8 7 6 5 5 4 3 3 2 2 3 2 3 3 4 5 5 5 5 4 4 3 2 3 3 3
6 8 6 4 2 2 4 4 6 8 9 8 8 10 10 10 9 9 9 9 8 8 7 7 7 7 6 5 4 3 3 3 3 2 3 3 4 4 4 5 4 4 4 4 3 3 3 3 3
3 3 5 4 5 5 3 7 7 11 11 10 11 10 10 10 10 10 9 8 8 7 7 6 6 6 5 5 4 3 3 3 2 2 2 2 3 3 3 4 4 4 4 4 4 3 4 4 4
6 6 7 4 3 4 4 7 6 9 9 9 10 9 9 10 10 9 9 8 7 7 6 6 7 7 6 6 4 3 3 1 2 2 2 2 2 3 3 3 3 4 4 4 3 4 4 4 5
Wind_Direction
171 157 122 106 72 30 316 305 304 29 56 59 74 79 80 59 74 114 252 120 131 139 149 148 145 141 139 137 135 135 136 137 140 143 144 140 136 133 129 121 113 107 97 88 82 77 66 64 58
158 142 129 97 98 109 303 296 5 80 130 112 73 70 72 69 68 91 79 123 126 129 135 140 139 138 140 144 145 147 151 154 158 164 167 166 164 162 163 168 159 148 137 117 96 83 65 54 46
158 154 140 112 126 172 197 240 116 80 98 96 78 54 62 60 60 87 124 133 123 119 122 130 132 135 138 143 151 157 164 172 175 179 186 192 193 193 198 203 203 200 194 186 172 170 207 321 349
153 135 65 86 118 231 204 228 146 104 73 67 98 73 56 33 77 109 118 124 120 118 124 132 133 136 141 147 157 171 182 193 200 203 206 209 209 210 213 218 219 219 215 214 209 206 218 242 265
107 100 77 72 131 279 257 192 105 84 77 82 95 91 75 45 93 102 112 119 124 129 134 138 140 145 153 158 167 186 205 216 222 223 223 221 222 222 220 221 223 222 223 222 217 213 221 236 249
88 81 96 156 209 269 293 112 95 91 105 109 98 102 103 147 119 123 119 116 123 131 132 133 137 143 159 173 189 207 226 241 242 240 238 235 234 234 231 227 226 223 225 227 221 215 221 232 240
135 123 146 158 168 204 194 136 101 104 92 87 111 107 133 177 166 140 126 120 117 115 112 102 91 74 336 246 247 249 253 260 262 256 251 248 246 245 244 241 235 229 227 227 225 218 221 228 236
149 111 128 164 173 210 177 120 103 103 96 78 98 128 165 197 160 126 111 107 111 111 115 120 110 70 24 331 307 294 280 277 278 274 266 258 257 257 255 254 247 241 236 230 227 224 224 228 234
104 86 167 193 182 195 166 122 82 69 89 64 75 131 161 157 137 114 98 82 95 101 90 95 82 50 357 319 314 309 296 291 290 289 281 278 269 264 262 262 260 251 243 235 230 231 231 231 234
94 131 217 212 193 175 168 143 133 100 94 92 93 107 131 135 131 128 127 123 116 107 84 69 73 52 19 360 340 316 304 299 291 284 284 283 274 267 266 268 267 261 250 239 233 233 237 234 230
100 146 273 261 198 159 160 137 125 128 137 164 153 149 141 128 129 132 137 133 133 118 83 70 69 50 34 8 350 327 315 307 297 285 282 281 282 280 277 276 281 277 260 242 236 236 233 225 220
100 47 220 252 201 158 152 129 108 150 174 166 157 149 139 132 137 140 135 135 130 103 92 72 66 52 34 24 358 347 334 319 307 299 296 283 277 277 277 269 271 270 261 240 232 231 229 225 222
124 126 306 276 245 141 120 126 126 145 149 148 146 142 143 144 147 143 136 131 125 114 114 91 75 61 38 23 354 360 341 336 331 328 326 308 277 278 270 270 271 267 258 243 232 226 228 226 223
159 149 253 279 281 107 120 131 122 170 157 151 152 157 159 157 154 139 132 128 130 131 134 112 87 68 45 19 353 338 345 349 0 1 352 347 324 296 282 283 273 266 258 246 230 226 226 232 228
101 100 274 266 322 21 112 183 204 178 166 164 169 172 173 171 153 148 151 149 147 142 139 133 111 67 45 19 357 358 354 2 4 359 3 7 5 349 317 293 288 281 274 259 247 239 229 233 230
90 90 229 256 178 189 145 235 234 176 170 177 181 185 181 177 159 156 153 149 144 133 128 103 89 73 53 33 7 358 3 6 3 6 10 8 6 2 351 325 304 302 294 267 255 237 233 236 231
94 183 235 255 205 191 184 237 225 184 178 185 191 194 186 171 158 159 155 151 144 137 133 118 100 82 61 33 11 3 0 3 360 7 10 5 5 7 1 331 312 317 310 288 278 250 232 239 240
186 202 220 230 206 191 222 244 210 199 189 191 198 195 185 174 173 167 158 150 137 129 127 119 94 77 66 33 13 3 358 354 357 355 354 0 1 360 1 343 339 338 333 315 298 275 252 237 237
174 179 203 227 197 188 226 238 210 203 197 194 196 185 179 172 169 161 154 141 127 114 111 111 94 80 66 38 15 358 343 335 343 341 352 355 355 353 352 350 345 346 337 311 303 288 277 260 215
169 166 208 249 209 194 229 244 221 197 198 193 185 177 171 155 156 158 150 144 138 130 122 118 115 114 95 86 275 274 293 300 309 327 341 347 347 344 345 348 338 339 338 338 334 328 302 277 188
156 175 190 205 204 230 232 315 242 206 196 196 185 174 163 162 166 166 157 154 145 141 146 140 141 134 123 83 37 9 6 352 350 343 338 326 334 339 338 335 336 342 345 330 322 316 271 270 266
186 208 188 175 131 260 180 254 274 207 189 196 186 171 165 163 164 165 161 161 161 165 160 152 155 158 163 109 77 56 12 327 298 301 316 323 333 338 341 340 342 342 340 329 316 328 286 235 252
189 200 171 145 135 323 270 168 281 175 196 210 200 184 171 166 168 169 169 171 172 171 168 168 165 182 200 168 140 133 252 275 301 321 338 339 336 337 338 341 343 338 331 322 317 326 314 259 224
155 66 43 51 69 313 235 167 246 212 205 200 198 188 174 169 169 169 170 165 170 176 175 174 174 201 220 208 141 157 200 272 338 334 337 335 332 330 332 331 337 331 324 316 314 318 318 292 263
87 84 37 3 6 261 239 170 237 232 202 183 183 185 180 172 168 168 171 175 179 184 190 185 184 204 217 211 198 186 194 192 226 279 309 322 322 316 317 327 326 325 322 317 319 328 324 309 293
157 132 152 191 224 279 317 216 256 271 175 159 165 173 175 179 179 180 183 184 188 193 194 189 193 205 210 212 219 206 197 193 228 253 264 282 281 286 300 317 321 324 327 334 333 330 319 322 305
134 151 169 146 206 260 298 334 334 0 155 160 170 175 186 190 190 189 188 188 191 195 199 196 194 202 207 211 210 203 221 219 238 263 273 283 292 300 317 324 325 331 337 341 346 329 318 319 309
143 145 99 121 162 284 304 239 227 218 216 210 201 199 204 199 193 189 188 192 194 198 201 194 192 196 202 204 208 203 221 233 240 252 282 291 307 319 328 336 338 342 343 343 342 324 318 323 313
164 146 115 125 156 163 246 262 225 200 203 206 214 211 206 199 193 191 193 195 192 193 193 193 196 192 195 200 205 204 226 232 231 242 269 279 303 320 330 332 339 339 340 340 344 330 322 323 316
177 182 147 154 218 173 188 265 268 192 195 194 207 209 204 198 193 190 190 190 190 193 195 195 195 192 199 201 201 207 212 206 218 247 268 281 304 316 323 331 336 329 331 332 330 323 327 320 314
Height
1530 1531 1532 1534 1535 1541 1540 1532 1526 1522 1522 1523 1521 1523 1527 1531 1534 1541 1539 1536 1537 1538 1538 1539 1540 1541 1541 1542 1542 1542 1542 1542 1542 1543 1543 1543 1543 1543 1543 1543 1543 1543 1543 1543 1543 1543 1543 1543 1543
1530 1531 1533 1533 1539 1547 1542 1531 1526 1521 1523 1523 1524 1526 1529 1532 1534 1536 1536 1536 1537 1538 1538 1539 1540 1540 1541 1541 1541 1541 1542 1542 1542 1542 1542 1542 1542 1542 1542 1542 1542 1542 1542 1542 1542 1543 1543 1543 1543
1530 1531 1532 1533 1539 1544 1538 1529 1525 1522 1522 1522 1527 1529 1532 1535 1536 1536 1536 1537 1537 1538 1538 1539 1539 1539 1540 1540 1540 1540 1540 1540 1540 1540 1541 1541 1541 1541 1541 1541 1541 1541 1541 1541 1541 1541 1542 1542 1542
1530 1531 1531 1535 1539 1534 1530 1527 1523 1523 1524 1525 1527 1532 1535 1537 1537 1537 1537 1538 1538 1538 1538 1539 1539 1539 1539 1539 1539 1539 1539 1539 1539 1539 1539 1539 1539 1539 1539 1539 1539 1539 1540 1540 1540 1540 1540 1541 1541
1530 1529 1534 1539 1537 1531 1527 1525 1523 1523 1525 1528 1528 1534 1537 1538 1537 1538 1538 1539 1538 1539 1539 1538 1538 1538 1538 1538 1537 1537 1537 1537 1537 1537 1537 1537 1537 1537 1537 1537 1537 1537 1538 1538 1538 1539 1539 1539 1540
1529 1529 1539 1543 1537 1531 1527 1526 1525 1526 1528 1530 1531 1534 1538 1539 1539 1539 1539 1539 1539 1539 1539 1538 1538 1537 1537 1536 1536 1535 1535 1535 1534 1534 1534 1534 1534 1534 1535 1535 1535 1535 1535 1536 1536 1536 1537 1538 1538
1528 1530 1536 1537 1537 1533 1528 1526 1525 1527 1529 1530 1531 1535 1538 1539 1539 1539 1539 1539 1539 1539 1538 1538 1537 1536 1536 1535 1534 1534 1533 1532 1532 1532 1531 1531 1532 1532 1532 1532 1532 1533 1533 1533 1534 1534 1535 1536 1536
1525 1529 1534 1536 1536 1532 1526 1526 1527 1527 1529 1531 1532 1534 1537 1539 1539 1539 1539 1539 1539 1539 1538 1537 1536 1535 1534 1533 1532 1532 1531 1530 1529 1529 1528 1528 1528 1528 1529 1529 1529 1530 1530 1531 1532 1532 1533 1533 1534
1525 1532 1537 1534 1532 1529 1525 1526 1528 1529 1529 1531 1532 1534 1536 1538 1538 1539 1539 1539 1539 1538 1537 1536 1535 1534 1533 1532 1531 1530 1529 1528 1527 1526 1526 1525 1525 1525 1526 1526 1526 1527 1527 1528 1529 1529 1530 1531 1532
1524 1533 1531 1526 1524 1524 1524 1524 1527 1530 1531 1533 1534 1535 1536 1537 1538 1538 1539 1538 1538 1538 1536 1535 1534 1533 1531 1530 1529 1528 1527 1525 1525 1524 1523 1523 1522 1522 1522 1522 1523 1523 1524 1525 1525 1526 1527 1528 1529
1523 1528 1525 1523 1522 1522 1524 1525 1526 1529 1532 1532 1533 1534 1536 1537 1538 1538 1538 1538 1537 1537 1535 1534 1533 1531 1530 1528 1527 1525 1524 1523 1522 1522 1521 1520 1519 1519 1519 1519 1519 1520 1521 1521 1522 1523 1524 1525 1526
1524 1525 1524 1523 1522 1522 1523 1524 1526 1527 1529 1530 1532 1533 1535 1536 1536 1537 1537 1537 1536 1535 1534 1533 1531 1530 1528 1526 1525 1523 1522 1521 1520 1519 1518 1518 1517 1517 1516 1516 1516 1517 1517 1517 1518 1519 1521 1522 1523
1524 1525 1525 1523 1522 1522 1522 1524 1525 1527 1528 1530 1531 1533 1534 1534 1535 1536 1535 1535 1534 1533 1532 1531 1530 1528 1526 1524 1523 1521 1520 1519 1518 1517 1516 1515 1515 1514 1514 1514 1514 1513 1514 1514 1515 1516 1517 1519 1521
1522 1523 1524 1524 1523 1523 1523 1526 1526 1528 1528 1529 1530 1531 1532 1533 1533 1534 1534 1534 1533 1532 1531 1530 1528 1526 1525 1523 1521 1519 1518 1517 1516 1515 1514 1513 1512 1512 1511 1511 1511 1511 1511 1511 1512 1513 1514 1515 1517
1522 1524 1526 1524 1523 1523 1524 1528 1525 1524 1526 1528 1529 1530 1530 1531 1531 1532 1532 1532 1531 1530 1530 1528 1527 1525 1523 1521 1519 1518 1516 1515 1514 1513 1512 1511 1510 1509 1509 1508 1508 1508 1508 1508 1509 1509 1511 1512 1513
1524 1528 1532 1524 1523 1523 1528 1532 1522 1523 1524 1526 1527 1528 1528 1529 1530 1530 1531 1531 1530 1529 1528 1527 1526 1524 1522 1520 1518 1516 1515 1513 1512 1511 1510 1509 1508 1507 1506 1506 1505 1505 1505 1505 1506 1506 1507 1508 1509
1528 1534 1533 1527 1521 1521 1525 1527 1520 1521 1522 1523 1524 1525 1526 1528 1529 1529 1530 1530 1529 1528 1527 1526 1525 1523 1521 1519 1517 1515 1514 1512 1511 1510 1508 1507 1506 1504 1503 1503 1502 1502 1502 1502 1502 1503 1504 1505 1506
1531 1532 1530 1527 1520 1520 1523 1522 1519 1520 1520 1521 1522 1523 1524 1526 1527 1528 1529 1529 1528 1527 1526 1525 1524 1522 1520 1518 1516 1515 1513 1511 1510 1509 1507 1506 1504 1503 1501 1501 1500 1499 1499 1499 1500 1500 1501 1502 1503
1518 1522 1525 1520 1514 1519 1521 1520 1517 1517 1519 1519 1520 1521 1522 1524 1526 1527 1528 1527 1527 1526 1525 1524 1523 1521 1519 1517 1515 1514 1512 1511 1509 1508 1506 1505 1503 1501 1500 1499 1498 1497 1497 1497 1497 1497 1498 1499 1500
1514 1521 1523 1517 1512 1516 1519 1517 1513 1513 1514 1516 1517 1519 1520 1522 1524 1525 1526 1526 1525 1525 1524 1523 1521 1520 1518 1516 1515 1513 1512 1510 1509 1507 1506 1504 1502 1500 1499 1497 1496 1495 1495 1495 1495 1495 1495 1496 1497
1516 1519 1519 1518 1512 1513 1517 1521 1516 1512 1513 1515 1516 1517 1517 1519 1521 1523 1524 1524 1524 1524 1523 1522 1521 1519 1518 1516 1515 1513 1512 1510 1508 1507 1505 1503 1501 1499 1498 1496 1495 1494 1493 1493 1493 1493 1493 1494 1495
1517 1509 1510 1512 1521 1527 1521 1537 1520 1514 1514 1514 1514 1515 1516 1517 1519 1521 1522 1522 1523 1522 1522 1521 1520 1519 1517 1516 1514 1513 1511 1509 1508 1506 1504 1502 1501 1499 1497 1495 1494 1493 1492 1491 1491 1491 1491 1492 1492
1508 1503 1506 1510 1519 1527 1524 1533 1527 1516 1517 1513 1512 1513 1514 1515 1517 1519 1520 1521 1521 1521 1521 1520 1519 1518 1517 1515 1514 1512 1511 1509 1508 1506 1504 1502 1500 1498 1496 1494 1493 1492 1491 1490 1489 1489 1489 1489 1490
1501 1507 1512 1521 1528 1539 1525 1532 1528 1519 1511 1509 1509 1510 1512 1514 1516 1517 1519 1519 1520 1520 1520 1519 1518 1517 1516 1515 1513 1512 1510 1509 1507 1505 1503 1501 1499 1497 1495 1494 1492 1491 1489 1489 1488 1487 1487 1487 1488
1506 1522 1539 1539 1548 1541 1521 1525 1522 1506 1502 1503 1505 1508 1510 1512 1514 1515 1516 1517 1518 1518 1518 1518 1517 1516 1515 1514 1513 1511 1510 1508 1506 1504 1502 1500 1498 1496 1494 1493 1491 1490 1488 1487 1486 1486 1485 1485 1485
1507 1519 1539 1546 1547 1538 1520 1523 1514 1502 1500 1501 1503 1506 1508 1510 1512 1513 1514 1515 1516 1517 1517 1517 1516 1515 1514 1513 1512 1511 1509 1508 1506 1504 1502 1500 1498 1496 1494 1492 1490 1489 1487 1486 1485 1484 1484 1483 1483
1507 1515 1518 1532 1532 1537 1531 1520 1510 1504 1504 1503 1504 1505 1507 1508 1509 1511 1512 1513 1514 1515 1515 1515 1515 1514 1513 1512 1511 1510 1508 1507 1505 1503 1501 1499 1497 1495 1493 1491 1489 1487 1486 1485 1483 1482 1482 1481 1481
1501 1508 1522 1530 1539 1543 1531 1526 1523 1509 1506 1504 1504 1504 1504 1506 1507 1509 1510 1511 1512 1513 1513 1513 1513 1513 1512 1511 1510 1509 1507 1506 1504 1502 1500 1498 1496 1494 1492 1490 1488 1487 1485 1483 1482 1480 1480 1479 1478
1503 1506 1518 1530 1534 1542 1540 1529 1501 1500 1499 1500 1500 1500 1501 1503 1504 1506 1508 1509 1510 1511 1511 1512 1512 1511 1511 1510 1509 1508 1506 1505 1503 1501 1499 1497 1495 1493 1491 1489 1487 1485 1484 1482 1480 1479 1477 1476 1476
1498 1503 1514 1527 1528 1533 1539 1526 1492 1492 1493 1495 1496 1497 1499 1500 1502 1504 1506 1507 1508 1509 1510 1510 1510 1510 1509 1509 1508 1506 1505 1503 1502 1500 1498 1496 1494 1492 1490 1488 1486 1484 1482 1481 1479 1477 1475 1474 1473